Commit Graph

  • b0d490036f fix bug, only find dest proddy 2025-11-06 12:56:58 +01:00
  • c28b098c65 show ntp in info proddy 2025-11-06 12:56:42 +01:00
  • 4a6ccce09a add ntp for completeness and testing proddy 2025-11-06 12:56:20 +01:00
  • 5053ad08dd add comment proddy 2025-11-06 12:56:00 +01:00
  • 72b4809ed8 update tests proddy 2025-11-06 12:55:49 +01:00
  • 6799fe5189 rename Initialising to Booting proddy 2025-11-06 12:55:40 +01:00
  • 12635ff4a5 optimizations and show # entities and languages proddy 2025-11-05 22:29:15 +01:00
  • 5908fd9d9c show language count proddy 2025-11-05 20:50:29 +01:00
  • 5c07a2c0cc remove specific commands like ntp/enabled (ap/enabled didn't work) and replace with just service name proddy 2025-11-05 16:54:08 +01:00
  • f5048abae7 formatting proddy 2025-11-05 16:53:25 +01:00
  • 76acffdb2e Merge pull request #2715 from MichaelDvP/dev Proddy 2025-11-05 15:03:01 +01:00
  • 1ac96aa02e add SRC climate humidity #2714 MichaelDvP 2025-11-05 14:50:32 +01:00
  • 3386ac7f8a Merge pull request #2701 from proddy/dev Proddy 2025-11-05 14:06:26 +01:00
  • 1e4c157c28 package update proddy 2025-11-05 14:04:50 +01:00
  • a1c5297eef add aria-label to buttons and text fields with no label #2710 proddy 2025-11-05 14:02:00 +01:00
  • cda04bef26 don't print out file names in bundle proddy 2025-11-05 09:12:36 +01:00
  • 1edf60b617 formatting proddy 2025-11-05 09:01:35 +01:00
  • 32cf4dd6c9 3.7.3-dev.25 proddy 2025-11-05 09:01:29 +01:00
  • f0caeb089d package update proddy 2025-11-05 08:58:04 +01:00
  • 23f1e7569c formatting proddy 2025-11-05 08:57:56 +01:00
  • 5087fdb5d6 prevent flicker when refreshing proddy 2025-11-04 18:17:35 +01:00
  • b654a42229 package update proddy 2025-11-04 18:06:09 +01:00
  • d312c8e592 update proddy 2025-11-04 18:06:04 +01:00
  • 319787bae3 switch our dialog with box proddy 2025-11-04 18:05:57 +01:00
  • d124b04a2c tidy up error page proddy 2025-11-04 18:05:41 +01:00
  • 4ef8a3a163 package update proddy 2025-11-04 01:00:46 +01:00
  • 41b5cdddf2 smaller window proddy 2025-11-04 01:00:39 +01:00
  • e10453b2fd don't show border proddy 2025-11-04 01:00:27 +01:00
  • d2f665ab70 fix name proddy 2025-11-04 01:00:17 +01:00
  • 4083478b65 smaller font proddy 2025-11-04 01:00:08 +01:00
  • 01136a19a5 make wait uint16_t to allow max 2000 proddy 2025-11-03 18:18:08 +01:00
  • 0b2df96461 add message test proddy 2025-11-03 18:15:29 +01:00
  • f66c3ff322 Merge branch 'dev' into dev Proddy 2025-11-03 18:02:43 +01:00
  • 5d8fe89e5a python optimizations proddy 2025-11-03 18:01:09 +01:00
  • 22eb5436ab Merge pull request #2709 from MichaelDvP/dev Proddy 2025-11-03 17:59:53 +01:00
  • 17bdd87576 optimized window size detection proddy 2025-11-03 17:51:51 +01:00
  • 8f7c0a1d97 all values proddy 2025-11-03 17:51:04 +01:00
  • 3b453b18bc add section for all values proddy 2025-11-03 17:50:53 +01:00
  • a1fc5bf54b fix lint warning proddy 2025-11-03 17:50:43 +01:00
  • 0cb413a579 package update proddy 2025-11-03 17:50:30 +01:00
  • d326d345f4 chore: update generated files MichaelDvP 2025-11-03 10:53:17 +00:00
  • 1de647e8a5 tcp stack 6k, move message shuntingYard to scheduler MichaelDvP 2025-11-03 11:37:24 +01:00
  • c562b88b32 update pkg MichaelDvP 2025-11-03 11:36:28 +01:00
  • f2e38330ea fix window positioning proddy 2025-11-02 19:46:11 +01:00
  • f2dca2a90a dev24, fix syslog timestamp #2704 MichaelDvP 2025-11-02 17:43:13 +01:00
  • 9f1cd04d45 auto-formatting proddy 2025-11-02 13:01:03 +01:00
  • fe67f3a982 fix syslog, remove filter proddy 2025-11-02 13:00:55 +01:00
  • 2fd6e9ebf5 package update proddy 2025-11-02 13:00:45 +01:00
  • 0f1195de82 Merge pull request #2705 from auenkind/devcontainer Proddy 2025-11-02 10:29:37 +01:00
  • 267042f74f add devcontainer config David Neu 2025-11-02 08:25:18 +00:00
  • ea9783dbfc use ems/ems+ telegrams for forceheatingoff, add fanspd #2702 MichaelDvP 2025-11-01 19:22:32 +01:00
  • 67655c4b06 package updates proddy 2025-11-01 16:12:09 +01:00
  • 2970aa5ba3 Merge branch 'dev' into dev Proddy 2025-11-01 16:10:21 +01:00
  • 99a3ffcf17 optimizations, use md5 for hash proddy 2025-11-01 16:04:47 +01:00
  • 9bc5bde3c2 fix maxflowtemp for convectors, coolingon as bit, nrg with decimals MichaelDvP 2025-11-01 13:27:09 +01:00
  • 0edb844225 remove pnpm build proddy 2025-10-31 18:41:37 +01:00
  • e3feb8f11e webUI target also builds proddy 2025-10-31 18:41:27 +01:00
  • 6b7534b7fb optimizations proddy 2025-10-31 18:38:38 +01:00
  • ca1506de8b add custom error page proddy 2025-10-31 18:36:18 +01:00
  • 1cb535dea3 optimized for speed proddy 2025-10-31 18:35:01 +01:00
  • 5d32b6d383 package update proddy 2025-10-31 18:34:39 +01:00
  • c203b8e6d2 Merge pull request #2697 from MichaelDvP/dev Proddy 2025-10-30 07:54:40 +01:00
  • e6dbe020c1 package update proddy 2025-10-29 12:40:28 +01:00
  • 63cf1603b0 modules menuitem resized proddy 2025-10-29 12:40:21 +01:00
  • c184a0af10 Merge branch 'dev' of https://github.com/MichaelDvP/EMS-ESP32 into dev MichaelDvP 2025-10-29 10:48:32 +01:00
  • 8a4e6d5ed5 fix selflowtemp, #2641 MichaelDvP 2025-10-29 10:46:46 +01:00
  • aadb67fa79 speed up mock logging proddy 2025-10-28 22:19:40 +01:00
  • 4949471518 package update proddy 2025-10-28 22:19:29 +01:00
  • 9504723ef2 add back security proddy 2025-10-28 22:19:20 +01:00
  • 3abfb7bb9c optimizations proddy 2025-10-28 22:19:08 +01:00
  • 3ef6bf8681 chore: update generated files MichaelDvP 2025-10-28 16:04:27 +00:00
  • 1647a10b1b add solar TS16, TS8, #2690 MichaelDvP 2025-10-28 16:51:30 +01:00
  • 55b893362c Merge pull request #2696 from MichaelDvP/dev Proddy 2025-10-27 19:36:06 +01:00
  • 48f1928327 remove cpu temperature for esp32 MichaelDvP 2025-10-27 17:30:43 +01:00
  • dc793f145d Merge pull request #2694 from MichaelDvP/dev Proddy 2025-10-27 17:07:05 +01:00
  • 77e0b7d89c fix dashboard write #2693 MichaelDvP 2025-10-27 11:08:04 +01:00
  • cec19860bc Merge branch 'dev' of https://github.com/emsesp/EMS-ESP32 into dev MichaelDvP 2025-10-27 11:04:28 +01:00
  • 898acb90d0 Merge pull request #2688 from proddy/dev Proddy 2025-10-26 12:14:07 +01:00
  • a074ac732d dont run if no C++ src files changed proddy 2025-10-26 12:12:36 +01:00
  • c71526b95c Merge pull request #2687 from proddy/dev Proddy 2025-10-26 12:03:25 +01:00
  • f035e31dcf cosmetic improvements proddy 2025-10-26 11:59:19 +01:00
  • 35192b9dde optimized proddy 2025-10-26 08:51:47 +01:00
  • b5ac637231 Merge pull request #2685 from proddy/dev Proddy 2025-10-25 17:12:42 +02:00
  • 4e0ef8b0e3 remove bold on select proddy 2025-10-25 17:10:58 +02:00
  • c32ee4dfb5 consistent design between dashboard and device tables proddy 2025-10-25 16:59:20 +02:00
  • accfeab6fa prettier menu items proddy 2025-10-25 16:59:04 +02:00
  • d98f3cc8c5 python cleanup proddy 2025-10-25 16:03:13 +02:00
  • 342f238983 3.7.3-dev.23 proddy 2025-10-25 16:03:02 +02:00
  • 73f8ea0fc5 lower case some texts proddy 2025-10-25 16:02:50 +02:00
  • f2bd1ff575 added assumeChangesOnlyAffectDirectDependencies proddy 2025-10-25 15:23:05 +02:00
  • b3ec23d6bd more optimizations, see if it makes a difference proddy 2025-10-25 15:22:51 +02:00
  • 1fc7fa4720 cache what we can proddy 2025-10-25 15:22:29 +02:00
  • 58ae058465 use memo and callbacks for reduced rendering vis caching proddy 2025-10-25 15:21:59 +02:00
  • 7ece395d1b smaller table for dialog proddy 2025-10-25 14:49:14 +02:00
  • 4bb876031e text change proddy 2025-10-25 14:16:12 +02:00
  • e4f129db04 don't compile code when target is build_webUI proddy 2025-10-25 14:15:03 +02:00
  • 90038e08dc force a build for WebUI proddy 2025-10-25 14:14:42 +02:00
  • 4c30e930cf add building section proddy 2025-10-25 14:14:25 +02:00
  • dd69e02f6b add memo cache, smaller toaster windows proddy 2025-10-25 11:44:08 +02:00
  • f2ccf1953d Merge branch 'dev' of https://github.com/emsesp/EMS-ESP32 into dev MichaelDvP 2025-10-25 11:35:50 +02:00